Location: Fundy National Park
(45.6138°N, 65.0316°W)
Time: 20:52:43
(UTC-03:00)

ISS - Visible Passes

Search period start: 26 July 2021 00:00
Search period end: 05 August 2021 00:00
Orbit: 419 x 421 km, 51.6° (Epoch: 26 July)

Date Brightness Start Highest point End Pass type
(mag) Time Alt. Az. Time Alt. Az. Time Alt. Az.
26 Jul -1.3 00:23:46 10° WNW 00:24:45 17° W 00:24:45 17° W visible
26 Jul -2.6 21:59:29 10° NW 22:02:41 39° NNE 22:05:53 10° E visible
26 Jul -3.0 23:36:19 10° WNW 23:38:58 43° WSW 23:38:58 43° WSW visible
27 Jul -3.8 22:48:57 10° WNW 22:52:20 79° SSW 22:53:13 46° SE visible
28 Jul -3.6 22:01:37 10° WNW 22:05:00 70° NNE 22:07:30 17° ESE visible
28 Jul -1.5 23:38:58 10° W 23:40:27 17° WSW 23:40:27 17° WSW visible
29 Jul -2.7 22:51:19 10° WNW 22:54:21 31° SW 22:54:48 30° SSW visible
30 Jul -3.3 22:03:51 10° WNW 22:07:08 50° SW 22:09:11 20° SSE visible
31 Jul -3.7 21:16:28 10° WNW 21:19:51 78° SSW 21:23:13 10° SE visible
31 Jul -1.3 22:54:39 10° WSW 22:56:10 13° SW 22:56:35 12° SW visible
01 Aug -1.7 22:06:31 10° W 22:09:03 20° SW 22:11:05 12° S visible
02 Aug -2.3 21:18:50 10° WNW 21:21:52 31° SW 21:24:53 10° SSE visible
04 Aug -1.1 21:22:12 10° WSW 21:23:39 12° SW 21:25:07 10° SSW visible
